Location: *
(30.4476°N, 114.3798°E)
Time: 00:29:23
(UTC+00:00)

Cosmos 494 Rocket - Pass Details

Date: 09 April 2020
Orbit: 742 x 771 km, 74.1° (Epoch: 27 May)

Event Time Altitude Azimuth Distance (km) Brightness Sun altitude
Rises 19:41:43 0° 346° (NNW) 3,245 7.4 -29.0°
Reaches altitude 10° 19:44:07 10° 348° (NNW) 2,316 6.7 -28.5°
Maximum altitude 19:49:22 74° 74° (ENE) 802 4.1 -27.6°
Enters shadow 19:51:19 39° 150° (SSE) 1,138 4.8 -27.2°
